"Pseudo-MPEC" for G13554

Created 2019 Aug 17 19:07:02 UT using Find_Orb

Click here for an explanation of pseudo-MPECs

 
 Astrometry: 
     G13554  'C2019 08 11uZAstrometry'mh@NNv!Predacted;`WS#Jvr0/@C*74TR\(Mp/t309
     G13554  'C2019 08 118O6fWfg.'ya*I]V3lw0w4y+QQAYXlBR*KBq(c86j7wt:5+click'309
     G13554  'C2019 08 11'(8Xp7GB_Z+V,6'Nadky[kR0_g;AHwY'mJyoF^)Fj`,ZA4A+t`a?309
     G13554  'C2019 08 11lK%YfF[=Ybe]aZ)c)D#5XEIy*here)Mjkm\Lo]LQT+m?B/yKc=.a309
     G13554  'C2019 08 11tw??FrJPEnu8Qk(jQ]OyVq.0vqM^X![QA\IE2n9aaD,%y5JPLy)(309
     G13554  'C2019 08 11K78!b?`@AAqWt;ii.*PS7for/RY\,3fh^W[_@Ty:Oexplanation309
     G13554  'C2019 08 11ufkR`,v);Z3HqCTQVj7i0Mhagb;@E;B6n)wDfl$nPC[SlsCWyJE:309
     G13554  'C2019 08 117a/X=TM`EuCv?/hx/6N,8/`^();[S:OEU_Wsm*YlZhye0wuF%'85309

Station data:
(309) Cerro Paranal  (S24.627212 W70.404310)  Chile.

Orbital elements:  G13554
   Perihelion 2019 Jun 11.960511 +/- 54.1 TT = 23:03:08 (JD 2458646.460511)
Epoch 2019 Aug 11.0 TT = JDT 2458706.5   Earth MOID: 0.3963   Ma: 0.0574
M  14.21212015 +/- 20               (J2000 ecliptic)          AutoNEOCP
n   0.23671287 +/- 0.238            Peri.  313.85244 +/- 60
a   2.58814217 +/- 1.74             Node   320.35789 +/- 34
e   0.4700662 +/- 0.253             Incl.   13.48678 +/- 8
P   4.16                   H 22.3   G  0.15   U 11.8  SR
q 1.37154381 +/- 0.401    Q 3.80474052 +/- 55.6
From 8 observations 2019 Aug. 11 (15.6 min); mean residual 0".06
Residuals in arcseconds: 
190811 309  .01+  .08+    190811 309  .06+  .10-    190811 309  .04+  .02+    
190811 309  .03-  .01+    190811 309  .03+  .01+    190811 309  .00   .10+    
190811 309  .00   .07-    190811 309  .11-  .05-    

Ephemerides (geocentric):
Date (UTC) HH   RA              Dec         delta   r     elong  mag " sig PA
---- -- -- --  -------------   -----------  ------ ------ -----  --- ---- ---
2019 08 17 19  21 01 41.117   -16 49 28.78  .51619 1.5219 168.7 22.3  36d  15
2019 08 17 20  21 01 39.221   -16 48 31.99  .51642 1.5221 168.6 22.3  36d  15
2019 08 17 21  21 01 37.328   -16 47 35.24  .51665 1.5223 168.6 22.3  36d  15
2019 08 17 22  21 01 35.439   -16 46 38.53  .51689 1.5224 168.5 22.3  36d  14
2019 08 17 23  21 01 33.554   -16 45 41.86  .51712 1.5226 168.5 22.3  36d  14
2019 08 18 00  21 01 31.673   -16 44 45.24  .51735 1.5228 168.4 22.3  36d  14
2019 08 18 01  21 01 29.796   -16 43 48.66  .51759 1.5230 168.4 22.3  36d  14
2019 08 18 02  21 01 27.922   -16 42 52.12  .51782 1.5231 168.4 22.3  36d  14
2019 08 18 03  21 01 26.053   -16 41 55.62  .51805 1.5233 168.3 22.3  36d  14
2019 08 18 04  21 01 24.187   -16 40 59.17  .51829 1.5235 168.3 22.3  36d  14
2019 08 18 05  21 01 22.325   -16 40 02.76  .51852 1.5236 168.2 22.3  36d  13
2019 08 18 06  21 01 20.467   -16 39 06.39  .51876 1.5238 168.2 22.3  36d  13
2019 08 18 07  21 01 18.613   -16 38 10.07  .51899 1.5240 168.1 22.3  36d  13
2019 08 18 08  21 01 16.763   -16 37 13.79  .51923 1.5242 168.1 22.3  36d  13
2019 08 18 09  21 01 14.916   -16 36 17.55  .51947 1.5243 168.1 22.3  36d  13
2019 08 18 10  21 01 13.074   -16 35 21.35  .51970 1.5245 168.0 22.3  36d  13
2019 08 18 11  21 01 11.235   -16 34 25.20  .51994 1.5247 168.0 22.3  36d  13
2019 08 18 12  21 01 09.401   -16 33 29.09  .52018 1.5249 167.9 22.3  36d  13
2019 08 18 13  21 01 07.570   -16 32 33.02  .52041 1.5250 167.9 22.3  36d  13
2019 08 18 14  21 01 05.743   -16 31 36.99  .52065 1.5252 167.8 22.3  36d  13
2019 08 18 15  21 01 03.920   -16 30 41.01  .52089 1.5254 167.8 22.3  36d  13
2019 08 18 16  21 01 02.101   -16 29 45.07  .52113 1.5255 167.8 22.3  36d  13
2019 08 18 17  21 01 00.286   -16 28 49.18  .52137 1.5257 167.7 22.3  36d  13
2019 08 18 18  21 00 58.475   -16 27 53.32  .52161 1.5259 167.7 22.3  36d  13
2019 08 18 19  21 00 56.667   -16 26 57.51  .52185 1.5261 167.6 22.3  36d  13
2019 08 18 20  21 00 54.864   -16 26 01.75  .52209 1.5262 167.6 22.3  36d  12
2019 08 18 21  21 00 53.065   -16 25 06.02  .52233 1.5264 167.5 22.3  36d  12
2019 08 18 22  21 00 51.269   -16 24 10.34  .52257 1.5266 167.5 22.3  36d  12
2019 08 18 23  21 00 49.477   -16 23 14.70  .52281 1.5268 167.5 22.3  36d  12
2019 08 19 00  21 00 47.690   -16 22 19.11  .52305 1.5269 167.4 22.3  36d  12
2019 08 19 01  21 00 45.906   -16 21 23.56  .52329 1.5271 167.4 22.4  36d  12
2019 08 19 02  21 00 44.126   -16 20 28.05  .52353 1.5273 167.3 22.4  36d  12
2019 08 19 03  21 00 42.350   -16 19 32.58  .52377 1.5275 167.3 22.4  36d  12
2019 08 19 04  21 00 40.578   -16 18 37.16  .52401 1.5276 167.2 22.4  36d  12
2019 08 19 05  21 00 38.810   -16 17 41.78  .52426 1.5278 167.2 22.4  36d  12
2019 08 19 06  21 00 37.046   -16 16 46.45  .52450 1.5280 167.2 22.4  36d  12
2019 08 19 07  21 00 35.286   -16 15 51.16  .52474 1.5281 167.1 22.4  36d  12
2019 08 19 08  21 00 33.530   -16 14 55.91  .52499 1.5283 167.1 22.4  36d  12
2019 08 19 09  21 00 31.778   -16 14 00.70  .52523 1.5285 167.0 22.4  36d  12
2019 08 19 10  21 00 30.030   -16 13 05.54  .52547 1.5287 167.0 22.4  36d  12
2019 08 19 11  21 00 28.286   -16 12 10.42  .52572 1.5288 166.9 22.4  36d  12
2019 08 19 12  21 00 26.545   -16 11 15.35  .52596 1.5290 166.9 22.4  36d  12
2019 08 19 13  21 00 24.809   -16 10 20.31  .52621 1.5292 166.8 22.4  36d  12
2019 08 19 14  21 00 23.077   -16 09 25.33  .52645 1.5294 166.8 22.4  36d  12
2019 08 19 15  21 00 21.349   -16 08 30.38  .52670 1.5295 166.8 22.4  36d  12
2019 08 19 16  21 00 19.624   -16 07 35.48  .52695 1.5297 166.7 22.4  36d  12
2019 08 19 17  21 00 17.904   -16 06 40.62  .52719 1.5299 166.7 22.4  36d  12
2019 08 19 18  21 00 16.187   -16 05 45.81  .52744 1.5301 166.6 22.4  36d  12